{"data":{"norad_id":53141,"epoch":"2026-05-25T03:39:37.571616Z","epoch_age_seconds":71925,"freshness":"FRESH","line1":"1 53141U 22083K   26145.15251819  .00000095  00000+0  24047-4 0  9993","line2":"2 53141  53.2121 190.8672 0000907  86.3389 273.7707 15.08846947212769","mean_motion":15.08846947,"eccentricity":9.07e-5,"inclination_deg":53.2121,"raan_deg":190.8672,"arg_perigee_deg":86.3389,"mean_anomaly_deg":273.7707,"bstar":2.4047e-5,"rev_number":21276,"period_min":95.437115266271,"perigee_km":539.09470502042,"apogee_km":540.34960467111,"semimajor_km":6917.8591548458,"source":"CELESTRAK","updated_at":"2026-05-25T13:38:17.317455Z"}}